Nellis AFB, NV

2:20 AM PDT on June 26, 2017 (GMT -0700)
Nellis Air Force Base

Weather History for KLSV - January, 2013

Change the Weather History Date:

Tuesday, January 22, 2013

  Actual Average Record
Temperature  
Mean Temperature 47 °F -  
Max Temperature 64 °F 58 °F 69 °F (2009)
Min Temperature 30 °F 36 °F 30 °F (1998)
Degree Days  
Heating Degree Days 18    
Moisture  
Dew Point 13 °F    
Average Humidity 29    
Maximum Humidity 44    
Minimum Humidity 14    
Precipitation  
Precipitation 0.00 in - - ()
Sea Level Pressure  
Sea Level Pressure 30.23 in    
Wind  
Wind Speed 2 mph (North)    
Max Wind Speed 8 mph    
Max Gust Speed -    
Visibility 10 miles    
Events      
Averages and records for this station are not official NWS values.
T = Trace of Precipitation, MM = Missing Value Source: NWS Daily Summary

Daily Weather History Graph

Daily Weather History Graph

Search for Another Location

Airport or City:

Trip Planner

Search our weather history database for the weather conditions in past years. The results will help you decide how hot, cold, wet, or windy it might be!

Date:

Astronomy

Jan. 22, 2013 Rise Set
Actual Time 6:47 AM PST 4:56 PM PST
Civil Twilight 6:19 AM PST 5:24 PM PST
Nautical Twilight 5:48 AM PST 5:55 PM PST
Astronomical Twilight 5:18 AM PST 6:25 PM PST
Moon 1:23 PM PST (1/22) 3:11 AM PST (1/22)
Length of Visible Light 11h 04m
Length of Day
10h 08m
Waxing Gibbous, 83% of the Moon is Illuminated
Jan 22
Waxing Gibbous
Jan 26
Full
Feb 3
Last Quarter
Feb 9
New
Feb 17
First Quarter

Hourly Weather History & Observations

Time (PST) Temp. Windchill Dew Point Humidity Pressure Visibility Wind Dir Wind Speed Gust Speed Precip Events Conditions
12:58 AM 38.8 °F - 9.3 °F 30% 30.23 in 10.0 mi Calm Calm - N/A   Clear
1:58 AM 33.8 °F - 10.8 °F 38% 30.25 in 10.0 mi ENE 2.3 mph - N/A   Clear
2:58 AM 34.0 °F 31.0 °F 11.1 °F 39% 30.26 in 10.0 mi NE 3.5 mph - N/A   Clear
3:58 AM 35.8 °F - 10.8 °F 36% 30.25 in 10.0 mi WNW 2.3 mph - N/A   Clear
4:58 AM 33.1 °F - 10.8 °F 40% 30.25 in 10.0 mi SSW 2.3 mph - N/A   Clear
5:58 AM 30.7 °F - 10.9 °F 44% 30.27 in 10.0 mi NNE 2.3 mph - N/A   Clear
6:58 AM 32.9 °F - 9.9 °F 38% 30.27 in 10.0 mi WNW 1.2 mph - N/A   Clear
7:58 AM 33.3 °F - 11.8 °F 41% 30.28 in 10.0 mi Calm Calm - N/A   Clear
8:58 AM 40.6 °F - 12.7 °F 32% 30.29 in 10.0 mi Calm Calm - N/A   Clear
9:58 AM 47.5 °F - 13.5 °F 26% 30.30 in 10.0 mi Calm Calm - N/A   Clear
10:58 AM 54.7 °F - 14.5 °F 20% 30.27 in 10.0 mi Variable 3.5 mph - N/A   Clear
11:58 AM 57.6 °F - 14.7 °F 19% 30.23 in 10.0 mi Calm Calm - N/A   Clear
12:58 PM 62.1 °F - 14.5 °F 16% 30.21 in 10.0 mi Calm Calm - N/A   Clear
1:58 PM 63.3 °F - 14.5 °F 15% 30.18 in 10.0 mi Variable 2.3 mph - N/A   Clear
2:58 PM 64.2 °F - 14.4 °F 14% 30.17 in 10.0 mi Calm Calm - N/A   Clear
3:58 PM 63.5 °F - 13.8 °F 14% 30.16 in 10.0 mi SSW 2.3 mph - N/A   Clear
4:58 PM 60.6 °F - 15.3 °F 17% 30.17 in 10.0 mi Calm Calm - N/A   Clear
5:58 PM 54.1 °F - 16.9 °F 23% 30.19 in 10.0 mi Calm Calm - N/A   Clear
6:58 PM 46.2 °F - 15.6 °F 29% 30.20 in 10.0 mi Calm Calm - N/A   Clear
7:58 PM 44.2 °F 39.7 °F 14.9 °F 31% 30.19 in 10.0 mi NE 8.1 mph - N/A   Clear
8:58 PM 45.1 °F 41.4 °F 14.5 °F 29% 30.20 in 10.0 mi NE 6.9 mph - N/A   Clear
9:58 PM 44.1 °F 41.5 °F 15.8 °F 32% 30.22 in 10.0 mi North 4.6 mph - N/A   Clear
10:58 PM 43.7 °F - 15.3 °F 32% 30.22 in 10.0 mi NNW 2.3 mph - N/A   Clear
11:58 PM 42.1 °F 40.2 °F 15.1 °F 34% 30.22 in 10.0 mi North 3.5 mph - N/A   Clear